Flag for Austria Weather past 2 weeks in Klagenfurt, Carinthia, Austria

Now
41 °F

Passing clouds.


Feels Like: 39 °F
Forecast: 43 / 64 °F
Wind: 3 mph from Northwest

Location: Klagenfurt-Flughafen


UV Index: 0 (Low)

Visibility: N/A


Pressure: 29.89 "Hg

Humidity: 61%

Dew point: 28 °F

Location of KlagenfurtLocation

Historic Weather in Klagenfurt

°F

Klagenfurt temperature yesterday

Maximum temperature yesterday: 57 °F (at 1:20 PM)
Minimum temperature yesterday: 30 °F (at 4:20 AM)
Average temperature yesterday: 45 °F

Past Weeks' High & Low Weather Summary

 TemperatureHumidityPressure
High72 °F (Apr 8, 3:20 PM)100% (Apr 5, 10:20 PM)30.24 "Hg (Apr 5, 10:20 PM)
Low30 °F (Apr 16, 4:20 AM)27% (Apr 9, 2:50 PM)29.71 "Hg (Apr 4, 2:50 PM)
Average51 °F66%30.01 "Hg
* Reported Apr 3 7:20 AM — Apr 18 7:50 AM, Klagenfurt, Weather by CustomWeather, © 2014

Note: Actual official high and low records may vary slightly from our data, if they occured in-between our weather recording intervals... More about our weather records

Advertising

Historic Weather Conditions — Data for Previous 24 hours

 ConditionsComfort  
Time TempWeatherWind HumidityBarometerVisibility
7:50 AM
Apr 18
39 °FSunny.2 mph70%29.89 "Hg10 mi
7:20 AM36 °FPassing clouds.5 mph81%29.92 "HgN/A
6:50 AM32 °FClear.6 mph87%29.92 "Hg10 mi
6:20 AM32 °FPassing clouds.5 mph87%29.92 "HgN/A
5:50 AM34 °FPassing clouds.5 mph81%29.92 "HgN/A
5:20 AM34 °FPassing clouds.6 mph81%29.92 "HgN/A
4:50 AM34 °FPassing clouds.2 mph81%29.95 "HgN/A
4:20 AM36 °FPassing clouds.3 mph81%29.95 "HgN/A
3:50 AM36 °FPassing clouds.6 mph81%29.95 "HgN/A
3:20 AM36 °FChilly.7 mph81%29.95 "HgN/A
2:50 AM36 °FChilly.3 mph81%29.98 "HgN/A
2:20 AM37 °FChilly.5 mph75%29.98 "HgN/A
1:50 AM37 °FChilly.5 mph75%29.98 "HgN/A
1:20 AM39 °FChilly.5 mph70%29.98 "HgN/A
12:50 AM41 °FQuite cool.3 mph66%30.01 "HgN/A
12:20 AM41 °FQuite cool.5 mph66%30.01 "HgN/A
11:50 PM
Apr 17
43 °FQuite cool.3 mph61%30.01 "HgN/A
11:20 PM43 °FPassing clouds.2 mph61%30.01 "HgN/A
10:50 PM46 °FPassing clouds.2 mph53%30.01 "HgN/A
10:20 PM48 °FPassing clouds.3 mph46%30.01 "HgN/A
9:50 PM50 °FPassing clouds.2 mph47%30.01 "HgN/A
9:20 PM50 °FPassing clouds.2 mph47%30.01 "HgN/A
8:50 PM52 °FScattered clouds.3 mph44%30.01 "HgN/A
8:20 PM52 °FScattered clouds.5 mph38%30.01 "HgN/A
7:50 PM52 °FScattered clouds.3 mph41%30.01 "HgN/A
6:50 PM54 °FScattered clouds.5 mph41%30.01 "HgN/A
6:20 PM54 °FScattered clouds.6 mph41%30.01 "HgN/A
5:50 PM54 °FBroken clouds.9 mph38%30.01 "HgN/A
5:20 PM55 °FPartly sunny.5 mph33%30.01 "HgN/A
4:50 PM55 °FScattered clouds.8 mph31%30.01 "HgN/A
4:20 PM55 °FPartly sunny.8 mph31%30.04 "HgN/A
3:50 PM55 °FPartly sunny.8 mph31%30.04 "HgN/A
3:20 PM55 °FPartly sunny.8 mph28%30.04 "HgN/A
2:50 PM55 °FPartly sunny.9 mph28%30.04 "HgN/A
2:20 PM55 °FScattered clouds.10 mph31%30.04 "HgN/A
1:50 PM55 °FScattered clouds.10 mph28%30.07 "HgN/A
1:20 PM57 °FPassing clouds.9 mph29%30.07 "HgN/A
12:50 PM55 °FPassing clouds.9 mph28%30.07 "HgN/A
12:20 PM54 °FPassing clouds.12 mph30%30.09 "HgN/A
11:50 AM54 °FPassing clouds.12 mph28%30.09 "HgN/A
11:20 AM52 °FPassing clouds.9 mph30%30.12 "HgN/A
10:50 AM52 °FPassing clouds.8 mph32%30.12 "HgN/A
10:20 AM50 °FPassing clouds.9 mph35%30.15 "HgN/A
9:50 AM48 °FPassing clouds.7 mph34%30.15 "HgN/A
9:20 AM48 °FPassing clouds.2 mph43%30.15 "HgN/A
8:50 AM43 °FPassing clouds.3 mph49%30.18 "HgN/A
8:20 AM39 °FPassing clouds.3 mph70%30.18 "HgN/A
Weather by CustomWeather, © 2014

See weather overview